Location: Bussy-Saint-Georges
(48.8410°N, 2.7017°E)
Time: 21:32:44
(UTC+00:00)

CZ-4C R/B - Pass Details

Date: 18 October 2021
Orbit: 403 x 482 km, 97.7° (Epoch: 07 December)

Event Time Altitude Azimuth Distance (km) Brightness Sun altitude
Rises 17:35:54 0° 22° (NNE) 2,506 6.4 -7.7°
Reaches altitude 10° 17:38:11 10° 34° (NE) 1,611 5.3 -8.1°
Maximum altitude 17:41:13 29° 96° (E) 867 3.8 -8.6°
Drops below altitude 10° 17:44:10 10° 158° (SSE) 1,557 5.5 -9.0°
Sets 17:46:20 0° 170° (S) 2,405 6.5 -9.4°
